Tracking 35275 objects as of 8-Sep-2026
HD Live streaming from Space Station
objects crossing your sky now

STARLINK-34909

Track STARLINK-34909 now!
10-day predictions
STARLINK-34909 is classified as:


NORAD ID: 65401
Int'l Code: 2025-191Y
Launch date: August 30, 2025
Source: United States (US)
Launch site: AIR FORCE WESTERN TEST RANGE (AFWTR)
Your satellite tracking list
Your tracking list is empty




NASA's NSSDC Master Catalog

Two Line Element Set (TLE):
1 65401U 25191Y   26250.58859567  .00012906  00000-0  40118-3 0  9997
2 65401  97.2850 116.8531 0001851  83.4372 276.7081 15.33462178 57672
Source of the keplerian elements: AFSPC